LUCH-5B

Last updated on Mon Nov 03 2025 00:02:57 GMT+0000 (Coordinated Universal Time)

1 38977U 12061A 25306.10673970 -.00000121 00000+0 00000+0 0 9996 2 38977 9.9907 52.0796 0007528 174.4010 197.3778 1.00271362 47339
UTC large
Height (km)
Speed (km/s)
/
Latitude / Longitude
Inclination (degrees)
Orbital Period (minutes)
Azimuth
Elevation
Range (km)
Doppler Factor

Next 0 passes for location: London (51.5072 / 0.1276)

Sorry there are no passes over London.